Caldwell, NJ

8:32 PM EDT on September 16, 2019 (GMT -0400)
Essex County

Weather History for KCDW - August, 2019

Change the Weather History Date:

Sunday, August 18, 2019

  Actual Average Record
Temperature  
Mean Temperature 82 °F -  
Max Temperature 93 °F 83 °F 97 °F (2002)
Min Temperature 71 °F 59 °F 39 °F (1979)
Cooling Degree Days 18    
Growing Degree Days 32 (Base 50)    
Moisture  
Dew Point 72 °F    
Average Humidity 76    
Maximum Humidity 94    
Minimum Humidity 46    
Precipitation  
Precipitation 0.03 in - - ()
Sea Level Pressure  
Sea Level Pressure 30.01 in    
Wind  
Wind Speed 3 mph (East)    
Max Wind Speed 13 mph    
Max Gust Speed 29 mph    
Visibility 10 miles    
Events Rain , Thunderstorm    
Averages and records for this station are not official NWS values.
T = Trace of Precipitation, MM = Missing Value Source: NWS Daily Summary

Daily Weather History Graph

Daily Weather History Graph

Search for Another Location

Airport or City:

Astronomy

Aug. 18, 2019 Rise Set
Actual Time 6:09 AM EDT 7:51 PM EDT
Civil Twilight 5:40 AM EDT 8:20 PM EDT
Nautical Twilight 5:05 AM EDT 8:55 PM EDT
Astronomical Twilight 4:27 AM EDT 9:33 PM EDT
Moon 9:44 PM EDT (8/18) 8:53 AM EDT (8/18)
Length of Visible Light 14h 39m
Length of Day
13h 41m
Waning Gibbous, 91% of the Moon is Illuminated
Aug 18
Waning Gibbous
Aug 23
Last Quarter
Aug 30
New
Sep 5
First Quarter
Sep 14
Full

Hourly Weather History & Observations

Time (EDT) Temp. Heat Index Dew Point Humidity Pressure Visibility Wind Dir Wind Speed Gust Speed Precip Events Conditions
12:01 AM 77.0 °F - 73.0 °F 88% 29.99 in 9.0 mi Calm Calm - 0.01 in Rain Light Rain
12:53 AM 73.9 °F - 72.0 °F 93% 30.01 in 9.0 mi North 3.5 mph - 0.01 in   Scattered Clouds
1:03 AM 75.9 °F - 73.9 °F 94% 30.00 in 9.0 mi NNE 3.5 mph - N/A   Mostly Cloudy
1:53 AM 73.9 °F - 71.1 °F 91% 30.01 in 10.0 mi Calm Calm - N/A   Overcast
2:28 AM 73.9 °F - 71.1 °F 91% 30.00 in 10.0 mi Calm Calm - N/A   Overcast
2:53 AM 73.9 °F - 70.0 °F 87% 30.01 in 10.0 mi Calm Calm - N/A   Overcast
3:53 AM 73.0 °F - 71.1 °F 93% 30.01 in 10.0 mi Calm Calm - N/A   Overcast
4:53 AM 73.9 °F - 71.1 °F 91% 30.01 in 10.0 mi Calm Calm - N/A   Overcast
5:53 AM 73.9 °F - 71.1 °F 91% 30.02 in 10.0 mi Calm Calm - N/A   Overcast
6:39 AM 73.9 °F - 72.0 °F 93% 30.02 in 9.0 mi Calm Calm - N/A   Overcast
6:53 AM 73.9 °F - 72.0 °F 93% 30.03 in 10.0 mi Calm Calm - N/A   Overcast
7:48 AM 75.2 °F - 73.4 °F 94% 30.04 in 10.0 mi Calm Calm - N/A   Overcast
7:53 AM 75.9 °F - 73.0 °F 91% 30.05 in 10.0 mi Calm Calm - N/A   Overcast
8:53 AM 79.0 °F - 73.9 °F 84% 30.05 in 10.0 mi NE 3.5 mph - N/A   Overcast
9:53 AM 81.0 °F 86.7 °F 75.0 °F 82% 30.05 in 9.0 mi Calm Calm - N/A   Mostly Cloudy
10:00 AM 82.0 °F 88.6 °F 75.0 °F 79% 30.04 in 8.0 mi Calm Calm - N/A   Mostly Cloudy
10:41 AM 84.9 °F 93.3 °F 75.0 °F 72% 30.04 in 9.0 mi Variable 3.5 mph - N/A   Mostly Cloudy
10:53 AM 84.0 °F 91.9 °F 75.0 °F 74% 30.05 in 9.0 mi Variable 3.5 mph - N/A   Mostly Cloudy
11:53 AM 87.1 °F 96.3 °F 75.0 °F 67% 30.02 in 10.0 mi Variable 3.5 mph - N/A   Mostly Cloudy
12:00 PM 87.1 °F 96.3 °F 75.0 °F 67% 30.01 in 9.0 mi NW 4.6 mph - N/A   Scattered Clouds
12:53 PM 91.0 °F 99.3 °F 73.0 °F 55% 30.01 in 10.0 mi Variable 4.6 mph - N/A   Scattered Clouds
1:53 PM 91.0 °F 98.2 °F 72.0 °F 53% 30.01 in 10.0 mi Variable 5.8 mph - N/A   Clear
2:53 PM 91.9 °F 97.4 °F 70.0 °F 48% 29.99 in 10.0 mi Variable 6.9 mph - N/A   Scattered Clouds
3:53 PM 93.9 °F 100.3 °F 70.0 °F 46% 29.97 in 10.0 mi Variable 5.8 mph - N/A   Partly Cloudy
4:46 PM 91.9 °F 98.4 °F 71.1 °F 50% 29.96 in 10.0 mi SW 4.6 mph - N/A Thunderstorm Mostly Cloudy
4:53 PM 93.0 °F 99.0 °F 70.0 °F 47% 29.97 in 10.0 mi Variable 6.9 mph - N/A Thunderstorm Mostly Cloudy
5:18 PM 91.0 °F 101.6 °F 75.0 °F 59% 29.95 in 10.0 mi SSE 12.7 mph - N/A   Partly Cloudy
5:38 PM 89.1 °F 99.1 °F 75.0 °F 63% 29.95 in 10.0 mi SE 10.4 mph - N/A Thunderstorm Partly Cloudy
5:53 PM 87.1 °F 96.3 °F 75.0 °F 67% 29.97 in 10.0 mi SSE 8.1 mph - N/A Thunderstorm Scattered Clouds
6:01 PM 86.0 °F 95.1 °F 75.0 °F 70% 29.96 in 10.0 mi SSE 9.2 mph - N/A Thunderstorm Thunderstorm
6:16 PM 86.0 °F 95.1 °F 75.0 °F 70% 29.97 in 10.0 mi South 8.1 mph 19.6 mph N/A Thunderstorm Scattered Clouds
6:41 PM 84.9 °F 91.4 °F 73.0 °F 67% 29.98 in 10.0 mi Variable 5.8 mph - N/A   Clear
6:53 PM 84.9 °F 92.1 °F 73.9 °F 69% 29.98 in 10.0 mi Variable 3.5 mph - N/A   Clear
7:48 PM 78.8 °F - 66.2 °F 65% 30.03 in 9.0 mi NW 12.7 mph 28.8 mph 0.00 in Rain Light Rain
7:53 PM 78.1 °F - 66.0 °F 66% 30.04 in 10.0 mi NW 10.4 mph 28.8 mph 0.01 in Rain Light Rain
8:53 PM 73.0 °F - 66.9 °F 81% 30.01 in 10.0 mi ENE 5.8 mph - 0.01 in Rain Light Rain
9:53 PM 72.0 °F - 68.0 °F 87% 30.03 in 10.0 mi Calm Calm - 0.00 in   Clear
10:53 PM 72.0 °F - 68.0 °F 87% 30.02 in 10.0 mi Calm Calm - N/A   Clear
11:53 PM 71.1 °F - 69.1 °F 93% 30.01 in 10.0 mi Calm Calm - N/A   Clear